Skip Page Navigation
NASA JPL Caltech
NASA Logo - Jet Propulsion Laboratory + View the NASA Portal
+ Center for Near-Earth Object Studies
JPL Home Earth Solar System Stars & Galaxies Technology
JPL Solar System Dynamics
BODIES ORBITS EPHEMERIDES TOOLS PHYSICAL DATA DISCOVERY FAQ SITE MAP
IMPORTANT: The SSD Announcement email list is now available. Major changes are coming in the near future, including possible hostname and/or URL changes. To be notified of such changes, subscribe to this email list.

Please visit this page for more details.


JPL Small-Body Database Browser
Search: [ help ]  
243770 (2000 RU79)
Classification: Main-belt Asteroid          SPK-ID: 2243770
Ephemeris | Orbit Diagram | Orbital Elements | Mission Design | Physical Parameters | Discovery Circumstances | Close-Approach Data ]

[ show orbit diagram ]
Orbital Elements at Epoch 2458600.5 (2019-Apr-27.0) TDB
Reference: JPL 8 (heliocentric ecliptic J2000)
 Element Value Uncertainty (1-sigma)   Units 
e .1835405959925309 7.1647e-08  
a 3.107140765667657 3.5882e-08 au
q 2.536854297704326 2.1314e-07 au
i 3.206364961284773 7.7401e-06 deg
node 9.164328469957656 0.00010572 deg
peri 328.165976262961 0.00010762 deg
M 144.2876569454295 2.3035e-05 deg
tp 2457798.699171667457
(2017-Feb-14.19917167)
0.00011914 TDB
period 2000.505825033141
5.48
3.4653e-05
9.487e-08
d
yr
n .1799544872577594 3.1172e-09 deg/d
Q 3.677427233630988 4.2467e-08 au
  Orbit Determination Parameters
   # obs. used (total)      259  
   data-arc span      8079 days (22.12 yr)  
   first obs. used      1996-12-13  
   last obs. used      2019-01-26  
   planetary ephem.      DE431  
   SB-pert. ephem.      SB431-N16  
   condition code      0  
   norm. resid. RMS      .67761  
   source      ORB  
   producer      Otto Matic  
   solution date      2019-Jul-13 13:49:09  

Additional Information
 Earth MOID = 1.5275 au 
 Jupiter MOID = 1.7121 au 
 T_jup = 3.192 
[ show covariance matrix ]

Ephemeris | Orbit Diagram | Orbital Elements | Mission Design | Physical Parameters | Discovery Circumstances | Close-Approach Data ]

Physical Parameter Table
Parameter Symbol Value Units Sigma Reference Notes
absolute magnitude H 15.7   n/a MPO251696  
diameter diameter 4.565 km 0.546 urn:nasa:pds:neowise_diameters_albedos::2.0[mainbelt] (http://adsabs.harvard.edu/abs/2012ApJ...759L...8M)  
geometric albedo albedo 0.041   0.020 urn:nasa:pds:neowise_diameters_albedos::2.0[mainbelt] (http://adsabs.harvard.edu/abs/2012ApJ...759L...8M)  

243770 (2000 RU79)          Discovered 2000-Sep-01 by LINEAR at Socorro
Reference: 20100726/Numbers.arcLast Updated: 2010-07-28

[ show close-approach data ]
Alternate Designations
 2000 RU79 = 2006 TM101 
Ephemeris | Orbit Diagram | Orbital Elements | Mission Design | Physical Parameters | Discovery Circumstances | Close-Approach Data ]
ABOUT SSD CREDITS/AWARDS PRIVACY/COPYRIGHT GLOSSARY LINKS
FirstGov 2019-Dec-07 06:57 UT
(server date/time)  
NASA Home Page
Site Manager:   Ryan S. Park
Webmaster  Alan B. Chamberlin